Satellite-Ground Cal/Val Site Overpasses Predictions

Prediction of Satellite NPP Overpassing Cal/Val Site: Antarctic Dome C

Ground Cal/Val Site Location: Latitude: -75.10, Longitude: 123.35; Satellite-Ground Site NADIR distance within 100 km.

Table of predicted overpasses for the next 14.0 days since TLE Epoch: 11/28/2020
Interval Starting Time Ending Time Minimum Distance Time Minimum Distance (km)
1 11/29/2020 07:24:49 11/29/2020 07:25:17 11/29/2020 07:25:03 36.72
2 12/01/2020 15:07:13 12/01/2020 15:07:23 12/01/2020 15:07:18 93.53
3 12/02/2020 14:48:14 12/02/2020 14:48:42 12/02/2020 14:48:28 17.66
4 12/04/2020 07:31:01 12/04/2020 07:31:31 12/04/2020 07:31:16 0.69
5 12/07/2020 14:54:25 12/07/2020 14:54:54 12/07/2020 14:54:40 18.51
6 12/08/2020 14:35:44 12/08/2020 14:35:57 12/08/2020 14:35:50 88.46
7 12/09/2020 07:37:15 12/09/2020 07:37:43 12/09/2020 07:37:29 35.56
